Find Starlink 30585

NORAD ID: 58063 Int'l Des: 2023-158 Owner: SPXS Country: US Constellation: starlink operational
LEOCIRCULAR

当前视图

正在加载3D地球...

About Starlink 30585

Starlink 30585 (NORAD 58063) is a starlink constellation satellite (v2 mini) launched Oct 13, 2023 by SPXS of US. It operates in LEO, CIRCULAR orbit with a mass of 730.00 kg.

关于 Starlink 30585

正在加载描述...

即将过境

Passes for default location (London). Set your location on the main map for personalized predictions.

高度历史

Loading altitude history...

两行轨道根数

1 58063U 23158N 26193.80330727 .00001037 00000-0 47201-4 0 9991
2 58063 43.0017 40.5462 0001446 262.4705 97.5982 15.27581213152701
Epoch: Jul 12, 2026 • Age: 5 hours

当前状态

高度 485.1 km
远地点 / 近地点 N/A
速度 7.63 km/s
星下点 33.76°N, 150.6°E
发射日期 Oct 13, 2023
运行时间 2.7 years
类型 internet

技术详情

分类 Payload
质量 730.00 kg
干质量 700.00 kg
总质量 730.00 kg
长度 0.30 m
直径 4.10 m
跨度 29.00 m
形状 Box + pan
制造商 SPXS
平台类型 Starlink V2M
阶段状态 In Orbit
所有者/国家 SPXS/US

Most Searched